Regional Weather Roundup
Issued by NWS

Home | Current Version | Previous Version | Text Only | Print | Product List | Glossary Off
Versions: 1 2 3 4 5 6 7 8 9 10 11 12 13 14 15 16 17 18 19 20 21 22 23 24 25 26 27 28 29 30 31 32 33 34 35 36 37 38 39 40 41 42 43 44 45 46 47 48 49 50

000
ASUS43 KOAX 291610
RWRNE

WEATHER ROUNDUP FOR NEBRASKA
NATIONAL WEATHER SERVICE OMAHA NE
1100 AM CDT SUN MAY 29 2016

NOTES: SATELLITE DATA IS BEING USED TO AUGMENT CLOUD COVER ABOVE
       12000 FEET.
       "FAIR" INDICATES FEW OR NO CLOUDS BELOW 12,000 FEET WITH NO
       SIGNIFICANT WEATHER AND/OR OBSTRUCTIONS TO VISIBILITY.

  * THESE STATIONS DO NOT REPORT WEATHER SUCH AS RAIN...SNOW OR FOG.

NEZ001>004-019>022-054>056-291700-
NEBRASKA PANHANDLE

CITY           SKY/WX    TMP DP  RH WIND       PRES   REMARKS
SCOTTSBLUFF    SUNNY     67  49  52 CALM      30.13S
ALLIANCE       SUNNY     66  51  58 S10       30.12S
CHADRON        SUNNY     66  50  56 VRB3      30.10F
KIMBALL        SUNNY     68  44  42 S3        30.17S
SIDNEY         SUNNY     70  48  45 SW10      30.15S
$$

NEZ057>060-069>072-079>082-291700-
SOUTHWEST NEBRASKA

CITY           SKY/WX    TMP DP  RH WIND       PRES   REMARKS
NORTH PLATTE   SUNNY     68  53  58 CALM      30.13F
IMPERIAL       SUNNY     68  55  63 SE3       30.13F
LEXINGTON      SUNNY     70  55  59 CALM      30.12F
MCCOOK         SUNNY     71  56  58 E3        30.11F
OGALLALA       SUNNY     70  53  54 S5        30.12F
$$

NEZ005>010-023>029-035>040-094-291700-
NORTH CENTRAL NEBRASKA

CITY           SKY/WX    TMP DP  RH WIND       PRES   REMARKS
VALENTINE      SUNNY     68  50  52 CALM      30.12S
AINSWORTH      MOSUNNY   69  52  55 CALM      30.12F
BROKEN BOW     SUNNY     70  56  61 SW3       30.12S
O`NEILL        SUNNY     72  57  58 NW5       30.11F
ORD            SUNNY     73  58  59 N6        30.10S
THEDFORD       MOSUNNY   71  50  46 S5        30.14S
$$

NEZ041-046>049-061>064-073>077-083>087-291700-
SOUTH CENTRAL NEBRASKA

CITY           SKY/WX    TMP DP  RH WIND       PRES   REMARKS
GRAND ISLAND   SUNNY     75  55  49 SW8       30.11S
AURORA         SUNNY     75  51  43 SW8       30.11S
HASTINGS       SUNNY     73  55  53 SW7       30.12S
HEBRON         MOSUNNY   76  58  53 CALM      30.12S
HOLDREGE       SUNNY     73  54  51 SW6       30.12F
KEARNEY *      SUNNY     73  54  49 CALM      30.13F
YORK           SUNNY     75  54  46 SW9       30.11S
$$

NEZ011>018-030>034-042>045-291700-
NORTHEAST NEBRASKA

CITY           SKY/WX    TMP DP  RH WIND       PRES   REMARKS
NORFOLK        SUNNY     72  57  59 SW7       30.09S
ALBION         SUNNY     73  53  50 W6        30.10S
BLAIR          SUNNY     72  60  66 SW5       30.10S
FREMONT        SUNNY     73  58  60 CALM      30.10F
TEKAMAH        SUNNY     75  55  49 MISG      30.08F
WAYNE          SUNNY     73  60  61 SW12      30.09S
$$

NEZ050>053-065>068-078-088>093-291700-
SOUTHEAST NEBRASKA

CITY           SKY/WX    TMP DP  RH WIND       PRES   REMARKS
LINCOLN        SUNNY     74  61  63 VRB3      30.10S
OMAHA EPPLEY   PTSUNNY   72  57  59 S6        30.09F
BEATRICE       SUNNY     78  58  50 W14G22    30.11S
FALLS CITY     PTSUNNY   77  62  59 SW9       30.10S
NEBRASKA CITY  MOSUNNY   74  60  61 SW5       30.11S
PLATTSMOUTH    MOSUNNY   75  61  62 S5        30.10F
$$

NEZ044-045-051>053-067-291700-
OMAHA AREA

CITY           SKY/WX    TMP DP  RH WIND       PRES   REMARKS
OMAHA EPPLEY   PTSUNNY   72  57  59 S6        30.09F
BLAIR          SUNNY     72  60  66 SW5       30.10S
FREMONT        SUNNY     73  58  60 CALM      30.10F
MILLARD        SUNNY     73  57  56 SE5       30.09S
OFFUTT AFB     LGT RAIN  73  61  64 VRB2      30.09S
PLATTSMOUTH    MOSUNNY   75  61  62 S5        30.10F
WAHOO          FAIR      73  58  59 S5        30.10S
$$



USA.gov is the U.S. government's official web portal to all federal, state and local government web resources and services.